| time (UTC) | temp C | wind direction | speed KPH | gust KPH | rain 1hr cm | rain 24hr cm | rain mn cm | humidity % | barometer mb |
| 20260506015847 | 20 | 270 | 0.0 | 0.0 | 0.00 | 0.00 | 0.00 | 32 | 1195.7 |
| 20260506015345 | 20 | 279 | 0.0 | 0.0 | 0.00 | 0.00 | 0.00 | 32 | 1195.7 |
| 20260506014842 | 21 | 270 | 0.0 | 0.0 | 0.00 | 0.00 | 0.00 | 31 | 1195.4 |
| 20260506014338 | 20 | 270 | 0.0 | 0.0 | 0.00 | 0.00 | 0.00 | 32 | 1195.7 |
| 20260506013829 | 20 | 267 | 0.0 | 0.0 | 0.00 | 0.00 | 0.00 | 31 | 1195.6 |
| 20260506013326 | 20 | 270 | 0.0 | 0.0 | 0.00 | 0.00 | 0.00 | 31 | 1195.5 |
| 20260506012823 | 21 | 274 | 0.0 | 0.0 | 0.00 | 0.00 | 0.00 | 30 | 1195.5 |
| 20260506012320 | 21 | 278 | 0.0 | 0.0 | 0.00 | 0.00 | 0.00 | 29 | 1195.9 |
| 20260506011818 | 21 | 279 | 0.0 | 0.0 | 0.00 | 0.00 | 0.00 | 30 | 1195.6 |
| 20260506011314 | 21 | 278 | 0.0 | 0.0 | 0.00 | 0.00 | 0.00 | 30 | 1195.5 |
| 20260506010812 | 21 | 278 | 0.0 | 1.6 | 0.00 | 0.00 | 0.00 | 31 | 1195.7 |
| 20260506010309 | 21 | 278 | 0.0 | 3.2 | 0.00 | 0.00 | 0.00 | 30 | 1195.5 |
| 20260506005806 | 21 | 273 | 1.6 | 9.7 | 0.00 | 0.00 | 0.00 | 28 | 1195.5 |
| 20260506005305 | 22 | 277 | 0.0 | 0.0 | 0.00 | 0.00 | 0.00 | 28 | 1195.4 |
| 20260506004758 | 22 | 270 | 0.0 | 1.6 | 0.00 | 0.00 | 0.00 | 27 | 1195.3 |
| 20260506004257 | 23 | 275 | 0.0 | 1.6 | 0.00 | 0.00 | 0.00 | 27 | 1195.5 |
| 20260506003752 | 23 | 271 | 0.0 | 11.3 | 0.00 | 0.00 | 0.00 | 27 | 1195.3 |
| 20260506003249 | 23 | 286 | 6.4 | 12.9 | 0.00 | 0.00 | 0.00 | 27 | 1195.4 |
| 20260506002745 | 22 | 284 | 4.8 | 8.0 | 0.00 | 0.00 | 0.00 | 27 | 1195.3 |
| 20260506002241 | 22 | 290 | 0.0 | 14.5 | 0.00 | 0.00 | 0.00 | 29 | 1195.2 |
| 20260506001737 | 23 | 278 | 1.6 | 11.3 | 0.00 | 0.00 | 0.00 | 26 | 1195.3 |
| 20260506001235 | 23 | 321 | 6.4 | 17.7 | 0.00 | 0.00 | 0.00 | 27 | 1195.3 |
| 20260506000732 | 23 | 276 | 0.0 | 4.8 | 0.00 | 0.00 | 0.00 | 26 | 1195.2 |
| 20260506000229 | 24 | 324 | 6.4 | 16.1 | 0.00 | 0.00 | 0.00 | 26 | 1195.1 |
| 20260505235726 | 24 | 282 | 0.0 | 9.7 | 0.00 | 0.00 | 0.00 | 27 | 1195.2 |
| 20260505235224 | 23 | 287 | 1.6 | 12.9 | 0.00 | 0.00 | 0.00 | 26 | 1195.2 |
| 20260505234721 | 22 | 275 | 0.0 | 11.3 | 0.00 | 0.00 | 0.00 | 27 | 1194.9 |
| 20260505234218 | 22 | 271 | 0.0 | 0.0 | 0.00 | 0.00 | 0.00 | 28 | 1195.2 |
| 20260505233714 | 22 | 282 | 0.0 | 1.6 | 0.00 | 0.00 | 0.00 | 27 | 1195.2 |
| 20260505233213 | 22 | 274 | 0.0 | 0.0 | 0.00 | 0.00 | 0.00 | 27 | 1195.1 |
| 20260505232709 | 23 | 337 | 0.0 | 4.8 | 0.00 | 0.00 | 0.00 | 27 | 1195.3 |
| 20260505232207 | 23 | 277 | 0.0 | 3.2 | 0.00 | 0.00 | 0.00 | 27 | 1195.3 |
| 20260505231704 | 22 | 276 | 0.0 | 1.6 | 0.00 | 0.00 | 0.00 | 27 | 1195.3 |
| 20260505231203 | 22 | 285 | 0.0 | 12.9 | 0.00 | 0.00 | 0.00 | 27 | 1195.5 |
| 20260505230700 | 23 | 354 | 0.0 | 3.2 | 0.00 | 0.00 | 0.00 | 25 | 1195.3 |
| 20260505230156 | 23 | 275 | 0.0 | 0.0 | 0.00 | 0.00 | 0.00 | 27 | 1195.3 |
| 20260505225652 | 23 | 276 | 3.2 | 8.0 | 0.00 | 0.00 | 0.00 | 27 | 1195.5 |
| 20260505225150 | 22 | 278 | 0.0 | 8.0 | 0.00 | 0.00 | 0.00 | 30 | 1195.7 |
| 20260505224645 | 23 | 264 | 0.0 | 0.0 | 0.00 | 0.00 | 0.00 | 27 | 1195.6 |
| 20260505224143 | 23 | 272 | 0.0 | 1.6 | 0.00 | 0.00 | 0.00 | 27 | 1195.3 |
| 20260505223641 | 21 | 279 | 0.0 | 1.6 | 0.00 | 0.00 | 0.00 | 29 | 1195.6 |
| 20260505223136 | 22 | 302 | 1.6 | 16.1 | 0.00 | 0.00 | 0.00 | 29 | 1196.0 |
| 20260505222633 | 23 | 281 | 0.0 | 3.2 | 0.00 | 0.00 | 0.00 | 28 | 1195.7 |
| 20260505222129 | 23 | 277 | 3.2 | 12.9 | 0.00 | 0.00 | 0.00 | 28 | 1195.7 |
| 20260505221626 | 24 | 270 | 0.0 | 1.6 | 0.00 | 0.00 | 0.00 | 27 | 1195.7 |
| 20260505221123 | 23 | 271 | 1.6 | 8.0 | 0.00 | 0.00 | 0.00 | 29 | 1195.7 |
| 20260505220620 | 23 | 278 | 0.0 | 1.6 | 0.00 | 0.00 | 0.00 | 28 | 1195.7 |
| 20260505220118 | 22 | 271 | 0.0 | 1.6 | 0.00 | 0.00 | 0.00 | 28 | 1195.7 |
| 20260505215615 | 23 | 272 | 0.0 | 1.6 | 0.00 | 0.00 | 0.00 | 27 | 1195.7 |
| 20260505215113 | 23 | 278 | 0.0 | 9.7 | 0.00 | 0.00 | 0.00 | 26 | 1195.9 |
| 20260505214611 | 23 | 293 | 1.6 | 17.7 | 0.00 | 0.00 | 0.00 | 26 | 1196.0 |
| 20260505214108 | 23 | 285 | 1.6 | 9.7 | 0.00 | 0.00 | 0.00 | 27 | 1196.1 |
| 20260505213605 | 23 | 288 | 1.6 | 8.0 | 0.00 | 0.00 | 0.00 | 26 | 1196.0 |
| 20260505213101 | 23 | 301 | 1.6 | 11.3 | 0.00 | 0.00 | 0.00 | 27 | 1195.7 |
| 20260505212552 | 22 | 278 | 1.6 | 14.5 | 0.00 | 0.00 | 0.00 | 28 | 1196.0 |
| 20260505212050 | 22 | 273 | 0.0 | 0.0 | 0.00 | 0.00 | 0.00 | 27 | 1196.0 |
| 20260505211547 | 22 | 267 | 0.0 | 1.6 | 0.00 | 0.00 | 0.00 | 27 | 1196.3 |
| 20260505211043 | 22 | 290 | 6.4 | 11.3 | 0.00 | 0.00 | 0.00 | 28 | 1196.1 |
| 20260505210540 | 22 | 308 | 1.6 | 4.8 | 0.00 | 0.00 | 0.00 | 29 | 1196.2 |
| 20260505210037 | 22 | 274 | 0.0 | 4.8 | 0.00 | 0.00 | 0.00 | 28 | 1196.2 |
| 20260505205535 | 22 | 268 | 0.0 | 1.6 | 0.00 | 0.00 | 0.00 | 30 | 1196.1 |
| 20260505205032 | 22 | 290 | 4.8 | 9.7 | 0.00 | 0.00 | 0.00 | 28 | 1196.1 |
| 20260505204530 | 22 | 276 | 6.4 | 20.9 | 0.00 | 0.00 | 0.00 | 29 | 1196.1 |
| 20260505204027 | 22 | 281 | 0.0 | 1.6 | 0.00 | 0.00 | 0.00 | 28 | 1196.3 |
| 20260505203523 | 22 | 275 | 0.0 | 8.0 | 0.00 | 0.00 | 0.00 | 30 | 1196.0 |
| 20260505203021 | 21 | 283 | 0.0 | 8.0 | 0.00 | 0.00 | 0.00 | 30 | 1196.2 |
| 20260505202516 | 20 | 13 | 4.8 | 12.9 | 0.00 | 0.00 | 0.00 | 31 | 1196.4 |
| 20260505202012 | 21 | 284 | 0.0 | 8.0 | 0.00 | 0.00 | 0.00 | 30 | 1196.3 |
| 20260505201510 | 22 | 271 | 0.0 | 1.6 | 0.00 | 0.00 | 0.00 | 30 | 1196.4 |
| 20260505201007 | 21 | 266 | 0.0 | 12.9 | 0.00 | 0.00 | 0.00 | 34 | 1196.2 |
| 20260505200505 | 21 | 250 | 0.0 | 3.2 | 0.00 | 0.00 | 0.00 | 30 | 1196.4 |
| 20260505200001 | 22 | 319 | 9.7 | 16.1 | 0.00 | 0.00 | 0.00 | 31 | 1196.4 |
| 20260505195458 | 21 | 277 | 3.2 | 9.7 | 0.00 | 0.00 | 0.00 | 32 | 1196.5 |
| 20260505194955 | 20 | 291 | 0.0 | 1.6 | 0.00 | 0.00 | 0.00 | 33 | 1196.5 |
| 20260505194453 | 21 | 276 | 0.0 | 0.0 | 0.00 | 0.00 | 0.00 | 32 | 1196.3 |
| 20260505193952 | 21 | 286 | 0.0 | 1.6 | 0.00 | 0.00 | 0.00 | 31 | 1196.5 |
| 20260505193450 | 21 | 120 | 4.8 | 8.0 | 0.00 | 0.00 | 0.00 | 32 | 1196.5 |
| 20260505192947 | 20 | 270 | 0.0 | 1.6 | 0.00 | 0.00 | 0.00 | 36 | 1196.5 |
| 20260505192446 | 20 | 293 | 1.6 | 14.5 | 0.00 | 0.00 | 0.00 | 36 | 1196.7 |
| 20260505191943 | 20 | 270 | 0.0 | 1.6 | 0.00 | 0.00 | 0.00 | 39 | 1196.5 |
| 20260505191442 | 20 | 272 | 0.0 | 1.6 | 0.00 | 0.00 | 0.00 | 40 | 1196.7 |
| 20260505190938 | 20 | 337 | 3.2 | 9.7 | 0.00 | 0.00 | 0.00 | 38 | 1196.8 |
| 20260505190433 | 18 | 230 | 1.6 | 9.7 | 0.00 | 0.00 | 0.00 | 41 | 1196.7 |
| 20260505185929 | 20 | 249 | 6.4 | 11.3 | 0.00 | 0.00 | 0.00 | 40 | 1196.8 |
| 20260505185427 | 21 | 265 | 0.0 | 3.2 | 0.00 | 0.00 | 0.00 | 40 | 1197.1 |
| 20260505184922 | 20 | 271 | 0.0 | 0.0 | 0.00 | 0.00 | 0.00 | 40 | 1196.8 |
| 20260505184420 | 20 | 277 | 0.0 | 3.2 | 0.00 | 0.00 | 0.00 | 41 | 1196.9 |
| 20260505183916 | 20 | 269 | 0.0 | 12.9 | 0.00 | 0.00 | 0.00 | 42 | 1196.8 |
| 20260505183413 | 19 | 271 | 0.0 | 3.2 | 0.00 | 0.00 | 0.00 | 42 | 1196.9 |
| 20260505182910 | 19 | 296 | 1.6 | 3.2 | 0.00 | 0.00 | 0.00 | 43 | 1196.9 |
| 20260505182407 | 18 | 274 | 0.0 | 0.0 | 0.00 | 0.00 | 0.00 | 42 | 1197.1 |
| 20260505181903 | 18 | 275 | 0.0 | 3.2 | 0.00 | 0.00 | 0.00 | 44 | 1197.0 |
| 20260505181401 | 18 | 288 | 4.8 | 12.9 | 0.00 | 0.00 | 0.00 | 44 | 1196.9 |
| 20260505180857 | 18 | 248 | 0.0 | 0.0 | 0.00 | 0.00 | 0.00 | 45 | 1197.1 |
| 20260505180354 | 17 | 275 | 0.0 | 0.0 | 0.00 | 0.00 | 0.00 | 48 | 1196.9 |
| 20260505175850 | 18 | 270 | 0.0 | 0.0 | 0.00 | 0.00 | 0.00 | 47 | 1197.1 |
| 20260505175347 | 17 | 268 | 0.0 | 0.0 | 0.00 | 0.00 | 0.00 | 50 | 1196.9 |
| 20260505174843 | 16 | 262 | 0.0 | 3.2 | 0.00 | 0.00 | 0.00 | 50 | 1197.2 |
| 20260505174341 | 16 | 266 | 0.0 | 3.2 | 0.00 | 0.00 | 0.00 | 52 | 1197.2 |
| 20260505173837 | 16 | 219 | 0.0 | 3.2 | 0.00 | 0.00 | 0.00 | 52 | 1197.1 |
| 20260505173333 | 16 | 271 | 1.6 | 1.6 | 0.00 | 0.00 | 0.00 | 52 | 1197.0 |
| 20260505172831 | 16 | 273 | 0.0 | 0.0 | 0.00 | 0.00 | 0.00 | 54 | 1197.2 |
| 20260505172328 | 15 | 264 | 0.0 | 0.0 | 0.00 | 0.00 | 0.00 | 56 | 1197.2 |
| 20260505171827 | 15 | 271 | 0.0 | 0.0 | 0.00 | 0.00 | 0.00 | 58 | 1197.1 |
| 20260505171325 | 15 | 257 | 0.0 | 1.6 | 0.00 | 0.00 | 0.00 | 60 | 1197.1 |
| 20260505170821 | 15 | 260 | 0.0 | 1.6 | 0.00 | 0.00 | 0.00 | 60 | 1197.3 |
| 20260505170318 | 15 | 266 | 0.0 | 0.0 | 0.00 | 0.00 | 0.00 | 61 | 1197.2 |
| 20260505165814 | 15 | 296 | 4.8 | 4.8 | 0.00 | 0.00 | 0.00 | 58 | 1197.4 |
| 20260505165309 | 15 | 274 | 0.0 | 0.0 | 0.00 | 0.00 | 0.00 | 61 | 1197.6 |
| 20260505164805 | 13 | 272 | 0.0 | 0.0 | 0.00 | 0.00 | 0.00 | 66 | 1197.3 |
| 20260505164303 | 13 | 264 | 0.0 | 0.0 | 0.00 | 0.00 | 0.00 | 65 | 1197.2 |
| 20260505163801 | 12 | 272 | 0.0 | 0.0 | 0.00 | 0.00 | 0.00 | 67 | 1197.4 |
| 20260505163259 | 13 | 269 | 0.0 | 8.0 | 0.00 | 0.00 | 0.00 | 69 | 1197.3 |
| 20260505162756 | 12 | 285 | 4.8 | 8.0 | 0.00 | 0.00 | 0.00 | 68 | 1197.3 |
| 20260505162253 | 12 | 277 | 0.0 | 1.6 | 0.00 | 0.00 | 0.00 | 70 | 1197.6 |
| 20260505161750 | 12 | 252 | 0.0 | 1.6 | 0.00 | 0.00 | 0.00 | 71 | 1197.6 |
| 20260505161247 | 12 | 275 | 0.0 | 8.0 | 0.00 | 0.00 | 0.00 | 72 | 1197.2 |
| 20260505160744 | 12 | 275 | 0.0 | 0.0 | 0.00 | 0.00 | 0.00 | 71 | 1197.6 |
| 20260505160242 | 11 | 272 | 0.0 | 8.0 | 0.00 | 0.00 | 0.00 | 75 | 1197.6 |
| 20260505153221 | 10 | 279 | 0.0 | 8.0 | 0.00 | 0.00 | 0.00 | 79 | 1197.4 |
| 20260505152718 | 10 | 285 | 1.6 | 4.8 | 0.00 | 0.00 | 0.00 | 80 | 1197.7 |
| 20260505152214 | 10 | 297 | 3.2 | 4.8 | 0.00 | 0.00 | 0.00 | 80 | 1197.4 |
| 20260505151709 | 10 | 272 | 0.0 | 3.2 | 0.00 | 0.00 | 0.00 | 82 | 1197.6 |
| 20260505151207 | 9 | 273 | 0.0 | 3.2 | 0.00 | 0.00 | 0.00 | 82 | 1197.6 |
| 20260505150703 | 9 | 298 | 6.4 | 9.7 | 0.00 | 0.00 | 0.00 | 83 | 1197.3 |
| 20260505150201 | 8 | 294 | 1.6 | 9.7 | 0.00 | 0.00 | 0.00 | 84 | 1197.4 |
| 20260505140633 | 8 | 273 | 0.0 | 0.0 | 0.00 | 0.00 | 0.00 | 90 | 1196.8 |
| 20260505140131 | 7 | 273 | 0.0 | 0.0 | 0.00 | 0.00 | 0.00 | 93 | 1196.9 |
| 20260505124544 | 5 | 271 | 0.0 | 0.0 | 0.00 | 0.00 | 0.00 | 97 | 1196.2 |
| 20260505124040 | 5 | 271 | 0.0 | 0.0 | 0.00 | 0.00 | 0.00 | 97 | 1196.1 |
| 20260505123537 | 6 | 275 | 0.0 | 0.0 | 0.00 | 0.00 | 0.00 | 97 | 1195.9 |
| 20260505123033 | 6 | 275 | 0.0 | 0.0 | 0.00 | 0.00 | 0.00 | 97 | 1195.9 |
| 20260505122530 | 6 | 275 | 0.0 | 0.0 | 0.00 | 0.00 | 0.00 | 97 | 1196.0 |
| 20260505122027 | 5 | 271 | 0.0 | 0.0 | 0.00 | 0.00 | 0.00 | 96 | 1196.0 |
| 20260505121523 | 5 | 271 | 0.0 | 0.0 | 0.00 | 0.00 | 0.00 | 96 | 1195.6 |
| 20260505121020 | 5 | 271 | 0.0 | 0.0 | 0.00 | 0.00 | 0.00 | 96 | 1195.9 |
| 20260505120516 | 5 | 271 | 0.0 | 0.0 | 0.00 | 0.00 | 0.00 | 96 | 1195.7 |
| 20260505120012 | 5 | 271 | 0.0 | 0.0 | 0.00 | 0.00 | 0.00 | 96 | 1195.7 |
| 20260505115507 | 5 | 271 | 0.0 | 0.0 | 0.00 | 0.00 | 0.00 | 96 | 1195.7 |
| 20260505115005 | 5 | 271 | 0.0 | 0.0 | 0.00 | 0.00 | 0.00 | 95 | 1196.0 |
| 20260505114502 | 6 | 271 | 0.0 | 0.0 | 0.00 | 0.00 | 0.00 | 95 | 1195.7 |
| 20260505113958 | 6 | 271 | 0.0 | 0.0 | 0.00 | 0.00 | 0.00 | 95 | 1195.7 |
| 20260505113454 | 6 | 271 | 0.0 | 0.0 | 0.00 | 0.00 | 0.00 | 95 | 1195.4 |
| 20260505112950 | 6 | 271 | 0.0 | 0.0 | 0.00 | 0.00 | 0.00 | 94 | 1195.6 |
| 20260505112447 | 6 | 271 | 0.0 | 0.0 | 0.00 | 0.00 | 0.00 | 94 | 1195.5 |
| 20260505111944 | 6 | 271 | 0.0 | 0.0 | 0.00 | 0.00 | 0.00 | 94 | 1195.9 |
| 20260505111438 | 6 | 271 | 0.0 | 0.0 | 0.00 | 0.00 | 0.00 | 94 | 1195.5 |
| 20260505110935 | 6 | 268 | 0.0 | 0.0 | 0.00 | 0.00 | 0.00 | 94 | 1195.4 |
| 20260505110432 | 7 | 270 | 0.0 | 0.0 | 0.00 | 0.00 | 0.00 | 94 | 1195.7 |
| 20260505101903 | 7 | 271 | 0.0 | 0.0 | 0.00 | 0.00 | 0.00 | 92 | 1195.4 |
| 20260505101357 | 7 | 263 | 0.0 | 0.0 | 0.00 | 0.00 | 0.00 | 92 | 1195.2 |
| 20260505100854 | 7 | 277 | 0.0 | 0.0 | 0.00 | 0.00 | 0.00 | 92 | 1195.4 |
| 20260505100350 | 7 | 278 | 0.0 | 0.0 | 0.00 | 0.00 | 0.00 | 92 | 1195.4 |
| 20260505095846 | 7 | 270 | 0.0 | 0.0 | 0.00 | 0.00 | 0.00 | 92 | 1195.2 |
| 20260505095344 | 7 | 278 | 0.0 | 0.0 | 0.00 | 0.00 | 0.00 | 92 | 1195.2 |
| 20260505094839 | 7 | 271 | 0.0 | 0.0 | 0.00 | 0.00 | 0.00 | 91 | 1195.3 |
| 20260505094336 | 7 | 315 | 0.0 | 0.0 | 0.00 | 0.00 | 0.00 | 91 | 1195.1 |
| 20260505093832 | 8 | 273 | 0.0 | 0.0 | 0.00 | 0.00 | 0.00 | 90 | 1195.4 |
| 20260505093330 | 8 | 272 | 0.0 | 3.2 | 0.00 | 0.00 | 0.00 | 90 | 1195.2 |
| 20260505092826 | 8 | 262 | 0.0 | 1.6 | 0.00 | 0.00 | 0.00 | 90 | 1195.1 |
| 20260505092325 | 8 | 285 | 1.6 | 4.8 | 0.00 | 0.00 | 0.00 | 90 | 1195.2 |
| 20260505091822 | 8 | 268 | 0.0 | 4.8 | 0.00 | 0.00 | 0.00 | 90 | 1195.4 |
| 20260505091320 | 8 | 266 | 0.0 | 8.0 | 0.00 | 0.00 | 0.00 | 90 | 1195.3 |
| 20260505090818 | 8 | 279 | 0.0 | 4.8 | 0.00 | 0.00 | 0.00 | 90 | 1195.4 |
| 20260505090316 | 8 | 268 | 0.0 | 0.0 | 0.00 | 0.00 | 0.00 | 90 | 1195.3 |
| 20260505085813 | 8 | 274 | 0.0 | 1.6 | 0.00 | 0.00 | 0.00 | 89 | 1195.2 |
| 20260505085310 | 8 | 275 | 0.0 | 0.0 | 0.00 | 0.00 | 0.00 | 89 | 1195.2 |
| 20260505084808 | 8 | 272 | 0.0 | 1.6 | 0.00 | 0.00 | 0.00 | 89 | 1195.1 |
| 20260505084307 | 8 | 283 | 0.0 | 0.0 | 0.00 | 0.00 | 0.00 | 89 | 1195.2 |
| 20260505083803 | 8 | 272 | 0.0 | 0.0 | 0.00 | 0.00 | 0.00 | 89 | 1195.3 |
| 20260505083300 | 8 | 268 | 0.0 | 0.0 | 0.00 | 0.00 | 0.00 | 89 | 1195.4 |
| 20260505082756 | 8 | 273 | 0.0 | 0.0 | 0.00 | 0.00 | 0.00 | 89 | 1195.3 |
| 20260505082253 | 8 | 266 | 0.0 | 0.0 | 0.00 | 0.00 | 0.00 | 89 | 1195.4 |
| 20260505081749 | 8 | 270 | 0.0 | 1.6 | 0.00 | 0.00 | 0.00 | 89 | 1195.2 |
| 20260505081247 | 8 | 263 | 0.0 | 1.6 | 0.00 | 0.00 | 0.00 | 89 | 1195.4 |
| 20260505080743 | 8 | 269 | 0.0 | 0.0 | 0.00 | 0.00 | 0.00 | 89 | 1195.3 |
| 20260505080239 | 9 | 269 | 0.0 | 0.0 | 0.00 | 0.00 | 0.00 | 88 | 1195.2 |
| 20260505075735 | 9 | 274 | 0.0 | 1.6 | 0.00 | 0.00 | 0.00 | 88 | 1195.3 |
| 20260505075232 | 9 | 269 | 0.0 | 1.6 | 0.00 | 0.00 | 0.00 | 88 | 1195.5 |
| 20260505074729 | 9 | 266 | 0.0 | 0.0 | 0.00 | 0.00 | 0.00 | 88 | 1195.2 |
| 20260505074227 | 9 | 284 | 0.0 | 0.0 | 0.00 | 0.00 | 0.00 | 88 | 1195.3 |
| 20260505073724 | 9 | 270 | 0.0 | 0.0 | 0.00 | 0.00 | 0.00 | 87 | 1195.5 |
| 20260505073222 | 10 | 261 | 0.0 | 0.0 | 0.00 | 0.00 | 0.00 | 87 | 1195.4 |
| 20260505072718 | 10 | 279 | 3.2 | 8.0 | 0.00 | 0.00 | 0.00 | 87 | 1195.2 |
| 20260505072214 | 10 | 273 | 0.0 | 0.0 | 0.00 | 0.00 | 0.00 | 88 | 1194.9 |
| 20260505071709 | 10 | 275 | 0.0 | 1.6 | 0.00 | 0.00 | 0.00 | 88 | 1195.2 |
| 20260505071207 | 10 | 268 | 0.0 | 4.8 | 0.00 | 0.00 | 0.00 | 88 | 1194.8 |
| 20260505070705 | 10 | 272 | 0.0 | 0.0 | 0.00 | 0.00 | 0.00 | 88 | 1194.9 |
| 20260505070201 | 10 | 268 | 0.0 | 1.6 | 0.00 | 0.00 | 0.00 | 88 | 1194.9 |
| 20260505065656 | 10 | 270 | 0.0 | 0.0 | 0.00 | 0.00 | 0.00 | 88 | 1194.9 |
| 20260505065154 | 10 | 276 | 0.0 | 1.6 | 0.00 | 0.00 | 0.00 | 88 | 1194.8 |
| 20260505064650 | 10 | 270 | 0.0 | 0.0 | 0.00 | 0.00 | 0.00 | 88 | 1194.9 |
| 20260505064149 | 10 | 268 | 0.0 | 3.2 | 0.00 | 0.00 | 0.00 | 87 | 1195.1 |
| 20260505063646 | 10 | 256 | 0.0 | 0.0 | 0.00 | 0.00 | 0.00 | 87 | 1195.2 |
| 20260505063142 | 10 | 275 | 1.6 | 3.2 | 0.00 | 0.00 | 0.00 | 86 | 1194.8 |
| 20260505062638 | 10 | 284 | 0.0 | 8.0 | 0.00 | 0.00 | 0.00 | 86 | 1194.5 |
| 20260505062136 | 10 | 263 | 1.6 | 8.0 | 0.00 | 0.00 | 0.00 | 86 | 1194.7 |
| 20260505061633 | 10 | 275 | 0.0 | 1.6 | 0.00 | 0.00 | 0.00 | 86 | 1194.5 |
| 20260505061131 | 10 | 277 | 0.0 | 1.6 | 0.00 | 0.00 | 0.00 | 85 | 1194.5 |
| 20260505060628 | 10 | 259 | 3.2 | 8.0 | 0.00 | 0.00 | 0.00 | 85 | 1194.5 |
| 20260505060125 | 10 | 290 | 0.0 | 4.8 | 0.00 | 0.00 | 0.00 | 85 | 1194.4 |
| 20260505055620 | 10 | 274 | 3.2 | 9.7 | 0.00 | 0.00 | 0.00 | 85 | 1194.1 |
| 20260505055117 | 10 | 284 | 4.8 | 14.5 | 0.00 | 0.00 | 0.00 | 85 | 1193.9 |
| 20260505054614 | 10 | 309 | 4.8 | 8.0 | 0.00 | 0.00 | 0.00 | 85 | 1193.8 |
| 20260505054112 | 10 | 274 | 1.6 | 3.2 | 0.00 | 0.00 | 0.00 | 85 | 1193.7 |
| 20260505053609 | 10 | 267 | 0.0 | 8.0 | 0.00 | 0.00 | 0.00 | 84 | 1193.6 |
| 20260505053105 | 10 | 281 | 0.0 | 9.7 | 0.00 | 0.00 | 0.00 | 84 | 1193.8 |
| 20260505052603 | 11 | 267 | 0.0 | 12.9 | 0.00 | 0.00 | 0.00 | 83 | 1193.6 |
| 20260505052100 | 11 | 335 | 1.6 | 8.0 | 0.00 | 0.00 | 0.00 | 83 | 1193.8 |
| 20260505051557 | 11 | 268 | 1.6 | 9.7 | 0.00 | 0.00 | 0.00 | 83 | 1193.3 |
| 20260505051055 | 11 | 264 | 0.0 | 11.3 | 0.00 | 0.00 | 0.00 | 83 | 1193.6 |
| 20260505050553 | 11 | 308 | 0.0 | 12.9 | 0.00 | 0.00 | 0.00 | 83 | 1193.6 |
| 20260505041520 | 11 | 267 | 0.0 | 11.3 | 0.00 | 0.00 | 0.00 | 81 | 1193.0 |
| 20260505041018 | 11 | 274 | 8.0 | 14.5 | 0.00 | 0.00 | 0.00 | 80 | 1192.5 |
| 20260505040515 | 12 | 270 | 4.8 | 20.9 | 0.00 | 0.00 | 0.00 | 79 | 1192.8 |
| 20260505040012 | 12 | 285 | 0.0 | 8.0 | 0.00 | 0.00 | 0.00 | 78 | 1192.5 |
| 20260505035508 | 12 | 291 | 4.8 | 11.3 | 0.00 | 0.00 | 0.00 | 79 | 1192.4 |
| 20260505035005 | 12 | 347 | 3.2 | 11.3 | 0.00 | 0.00 | 0.00 | 77 | 1192.4 |
| 20260505034501 | 12 | 276 | 0.0 | 16.1 | 0.00 | 0.00 | 0.00 | 75 | 1192.3 |
| 20260505033959 | 12 | 267 | 11.3 | 24.1 | 0.00 | 0.00 | 0.00 | 75 | 1192.0 |
| 20260505033455 | 12 | 263 | 8.0 | 27.4 | 0.00 | 0.00 | 0.00 | 76 | 1192.0 |
| 20260505032954 | 13 | 288 | 6.4 | 22.5 | 0.00 | 0.00 | 0.00 | 74 | 1192.0 |
| 20260505032451 | 13 | 323 | 0.0 | 11.3 | 0.00 | 0.00 | 0.00 | 73 | 1193.0 |
| 20260505031947 | 13 | 276 | 0.0 | 3.2 | 0.00 | 0.00 | 0.00 | 73 | 1193.0 |
| 20260505031444 | 13 | 313 | 4.8 | 11.3 | 0.00 | 0.00 | 0.00 | 72 | 1192.7 |
| 20260505030941 | 13 | 267 | 1.6 | 9.7 | 0.00 | 0.00 | 0.00 | 70 | 1192.8 |
| 20260505030437 | 13 | 294 | 6.4 | 14.5 | 0.00 | 0.00 | 0.00 | 70 | 1192.2 |
| 20260505025932 | 13 | 268 | 0.0 | 20.9 | 0.00 | 0.00 | 0.00 | 71 | 1192.0 |
| 20260505025430 | 14 | 265 | 0.0 | 17.7 | 0.00 | 0.00 | 0.00 | 70 | 1191.9 |
| 20260505024929 | 14 | 306 | 9.7 | 25.7 | 0.00 | 0.00 | 0.00 | 68 | 1191.9 |
| 20260505024425 | 15 | 311 | 4.8 | 12.9 | 0.00 | 0.00 | 0.00 | 67 | 1191.7 |
| 20260505023922 | 15 | 290 | 11.3 | 17.7 | 0.00 | 0.00 | 0.00 | 66 | 1191.3 |
| 20260505023419 | 15 | 279 | 4.8 | 12.9 | 0.00 | 0.00 | 0.00 | 65 | 1191.9 |
| 20260505022917 | 15 | 279 | 0.0 | 11.3 | 0.00 | 0.00 | 0.00 | 65 | 1191.4 |
| 20260505022414 | 15 | 271 | 3.2 | 12.9 | 0.00 | 0.00 | 0.00 | 64 | 1191.6 |
| 20260505021911 | 16 | 293 | 8.0 | 17.7 | 0.00 | 0.00 | 0.00 | 63 | 1191.2 |
| 20260505021407 | 16 | 258 | 3.2 | 9.7 | 0.00 | 0.00 | 0.00 | 63 | 1191.2 |
| 20260505020903 | 16 | 265 | 1.6 | 14.5 | 0.00 | 0.00 | 0.00 | 62 | 1191.3 |
| 20260505020359 | 17 | 283 | 1.6 | 9.7 | 0.00 | 0.00 | 0.00 | 60 | 1191.3 |